Location: Lamy Ridge Observatory
(35.5010°N, 105.8759°W)
Time: 11:01:11
(UTC-06:00)

ARIANE 6 FM1 Upper Stage - Visible Passes

Search period start: 08 June 2026 00:00
Search period end: 18 June 2026 00:00
Orbit: 528 x 599 km, 62.0° (Epoch: 8 June)

Date Brightness Start Highest point End Pass type
(mag) Time Alt. Az. Time Alt. Az. Time Alt. Az.
8 Jun 3.3 03:21:07 44° NW 03:21:11 44° NW 03:25:09 10° NNE visible
9 Jun 5.4 01:44:26 13° ENE 01:44:26 13° ENE 01:45:04 10° ENE visible
9 Jun 3.9 03:20:23 30° WNW 03:20:35 30° NW 03:24:15 10° NNE visible
10 Jun 5.1 01:43:38 17° ENE 01:43:38 17° ENE 01:44:48 10° NE visible
10 Jun 4.5 03:19:35 21° WNW 03:20:02 21° NW 03:23:14 10° N visible
11 Jun 4.9 01:42:47 22° NE 01:42:47 22° NE 01:44:20 10° NE visible
11 Jun 4.9 03:18:44 15° WNW 03:19:31 15° NW 03:21:59 10° N visible
12 Jun 4.7 01:41:53 26° NE 01:41:53 26° NE 01:43:44 10° NE visible
12 Jun 5.3 03:17:54 10° WNW 03:19:02 11° NW 03:20:11 10° NNW visible
13 Jun 4.6 01:40:55 28° NNE 01:40:55 28° NNE 01:43:01 10° NNE visible
14 Jun 4.6 01:39:54 28° N 01:39:54 28° N 01:42:10 10° NNE visible
15 Jun 4.7 01:38:47 24° NNW 01:38:47 24° NNW 01:41:13 10° N visible
16 Jun 5.4 00:01:41 11° NE 00:01:41 11° NE 00:01:51 10° NE visible
16 Jun 5.0 01:37:36 20° NW 01:37:36 20° NW 01:40:08 10° N visible
17 Jun 5.1 00:00:25 16° NE 00:00:25 16° NE 00:01:19 10° NE visible
17 Jun 5.3 01:36:19 14° NW 01:36:30 14° NW 01:38:49 10° N visible
